RH
13 12 12 12 12 12 13 13 14 16 16 18 20 21 21 21 22 22 22 24 25 26 26 27 27 26 30 33 37 39 43 44 41 41 38 42 44 44 40 34 30 30 30 39 50
13 14 15 14 14 14 14 14 15 16 18 20 19 20 21 22 23 23 23 24 25 26 27 27 27 29 30 35 39 42 46 42 38 38 42 46 51 51 46 37 33 31 38 36 51
12 12 14 15 16 16 15 15 15 17 18 20 20 20 21 21 23 23 23 24 25 27 28 28 28 29 32 35 39 43 47 42 41 44 50 49 50 55 51 41 38 40 42 43 50
13 12 12 13 15 16 17 17 17 17 17 19 21 20 20 21 22 23 24 25 26 27 29 30 30 32 35 38 42 46 44 46 41 47 55 56 55 50 52 44 39 45 47 40 54
15 14 13 12 12 14 14 16 15 18 18 19 20 20 21 20 22 23 25 25 26 27 29 29 31 34 37 40 43 49 45 48 44 49 56 56 55 57 52 43 41 48 54 46 60
17 17 16 16 16 15 14 14 16 16 18 18 18 21 23 22 20 23 24 25 26 28 30 30 31 34 38 41 45 44 48 48 45 48 57 60 57 58 46 45 42 52 60 53 70
15 14 15 15 16 15 16 15 14 16 19 19 17 20 23 22 20 21 24 26 27 29 31 31 31 32 35 39 40 45 49 42 40 45 55 64 58 53 50 49 49 54 62 70 72
24 21 21 21 22 21 17 17 15 16 20 23 20 20 23 22 19 20 22 25 28 30 31 33 32 33 36 36 36 43 51 47 38 44 52 66 63 51 52 61 61 61 70 93 78
27 26 26 28 29 29 28 25 22 19 20 24 26 21 22 22 19 20 22 25 28 31 32 34 34 34 34 37 41 45 60 49 49 52 53 64 63 50 49 54 61 60 83 97 82
30 31 29 27 30 33 31 30 27 26 26 26 28 24 23 22 20 21 22 24 27 31 33 34 33 34 36 40 45 48 61 53 62 58 61 61 56 49 67 72 63 68 82 96 90
31 33 29 26 26 28 30 34 31 26 29 29 29 28 26 22 21 25 23 24 28 30 34 37 35 39 37 40 42 49 63 60 60 64 59 60 51 65 75 84 71 79 84 90 93
35 35 30 29 27 30 30 36 34 30 34 32 30 29 25 21 23 26 25 24 29 32 36 38 36 38 37 40 39 43 57 54 61 62 57 53 61 65 79 88 80 89 96 97 92
44 42 37 37 39 36 34 33 34 33 39 35 30 28 23 23 27 26 26 27 31 35 40 43 38 38 37 38 42 40 51 59 65 59 51 56 60 68 69 75 74 89 96 96 94
50 43 46 41 41 36 37 34 33 36 40 32 27 26 25 25 28 29 30 31 33 42 47 44 40 40 40 37 43 42 48 55 61 60 57 60 64 57 58 63 69 82 90 96 97
50 47 44 37 34 35 35 35 33 38 48 27 26 27 27 29 32 30 32 32 35 43 57 40 46 43 39 36 43 43 44 53 53 61 58 56 61 61 55 53 51 59 83 95 97
59 52 43 36 33 35 38 35 35 38 34 28 29 28 28 31 33 32 33 32 36 40 50 54 45 43 39 38 41 44 39 45 52 55 69 61 61 61 54 49 48 48 53 70 86
63 56 45 41 38 38 36 33 37 41 28 29 30 31 31 34 33 33 35 37 39 44 48 49 44 41 40 38 39 49 43 47 50 60 57 58 58 54 53 47 42 42 46 48 53
63 58 50 45 41 39 37 35 32 27 30 33 31 30 30 33 32 32 29 36 36 38 47 53 54 41 41 43 46 51 48 54 41 57 57 52 54 57 49 44 42 39 36 34 41
69 63 57 46 40 40 38 41 33 29 36 35 30 25 28 30 30 28 27 34 36 39 45 49 46 41 43 42 44 48 58 51 53 54 54 59 57 55 49 45 42 40 38 37 34
68 69 63 50 42 39 41 43 35 38 38 34 29 28 29 30 29 28 28 33 37 41 45 48 48 40 40 36 40 51 52 46 51 52 51 50 52 63 60 59 52 46 42 38 36
78 75 65 53 44 41 43 40 36 36 35 35 32 31 31 29 30 31 29 34 39 42 46 45 44 41 39 37 40 50 50 47 49 56 50 51 45 51 55 58 54 52 53 50 45
80 79 66 59 49 45 43 41 41 37 37 37 36 34 32 31 30 31 31 34 41 43 42 40 44 47 40 39 43 49 51 49 50 47 54 51 52 52 53 52 51 52 52 49 50
82 81 72 65 53 42 41 43 41 41 41 39 39 35 32 34 32 32 34 39 41 40 36 39 40 44 43 41 45 46 50 51 52 53 55 56 50 59 59 57 55 52 49 46 45
86 81 73 61 51 47 44 44 42 43 42 40 37 36 35 34 36 38 41 39 40 38 45 44 43 42 48 46 45 48 50 52 51 59 52 53 51 60 61 59 56 57 55 52 48
82 78 75 63 59 58 51 51 48 44 42 41 39 39 38 38 41 44 42 42 41 47 47 48 49 49 48 49 50 50 52 50 48 47 48 45 52 61 60 59 54 53 53 53 50
78 78 78 70 64 64 59 57 54 48 44 43 43 43 44 45 46 46 47 46 46 47 50 52 52 53 56 52 46 46 43 44 46 45 45 46 58 59 58 56 50 53 55 54 53
85 82 76 76 73 69 60 58 53 52 48 45 45 47 48 51 52 52 51 50 51 52 56 58 60 58 58 48 46 44 52 48 52 54 57 55 60 59 58 55 55 57 59 58 53